Location: Waco, TX
(31.5480°N, 97.1670°W)
Time: 03:34:30
(UTC-06:00)

ISS - Pass Details

Date: 12 November 2017
Orbit: 402 x 407 km, 51.6° (Epoch: 24 November)

Event Time Altitude Azimuth Distance (km) Brightness Sun altitude
Rises 00:04:12 0° 219° (SW) 2,304 - -76.1°
Reaches altitude 10° 00:06:17 10° 216° (SW) 1,447 - -76.1°
Maximum altitude 00:09:30 68° 133° (SE) 435 - -76.2°
Drops below altitude 10° 00:12:44 10° 50° (NE) 1,452 - -76.2°
Sets 00:14:49 0° 48° (NE) 2,313 - -76.2°
